Covington, KY

3:31 PM EST on December 05, 2019 (GMT -0500)
Cincinnati-Northern KY International

Weather History for KCVG - October, 2019

Change the Weather History Date:

Tuesday, October 1, 2019

  Actual Average Record
Temperature  
Mean Temperature 80 °F 61 °F  
Max Temperature 95 °F 72 °F 88 °F (1952)
Min Temperature 66 °F 51 °F 34 °F (1974)
Degree Days  
Heating Degree Days 0 6  
Month to date heating degree days 6  
Since 1 July heating degree days 64  
Cooling Degree Days 14 2  
Month to date cooling degree days 2  
Year to date cooling degree days 1107  
Growing Degree Days 30 (Base 50)    
Moisture  
Dew Point 63 °F    
Average Humidity 59    
Maximum Humidity 90    
Minimum Humidity 35    
Precipitation  
Precipitation 0.00 in 0.09 in 2.47 in (1973)
Month to date precipitation 0.09  
Year to date precipitation 32.51  
Snow  
Snow - 0.00 in 0.00 in ()
Month to date snowfall 0.0  
Since 1 July snowfall 0.0  
Since 1 September snowfall 0.0  
Snow Depth -    
Sea Level Pressure  
Sea Level Pressure 30.02 in    
Wind  
Wind Speed 4 mph ()    
Max Wind Speed 15 mph    
Max Gust Speed 21 mph    
Visibility 9.3 miles    
Events      
T = Trace of Precipitation, MM = Missing Value Source: Averaged Metar Reports

Daily Weather History Graph

Daily Weather History Graph

Search for Another Location

Airport or City:

Astronomy

Oct. 01, 2019 Rise Set
Actual Time 7:34 AM EDT 7:21 PM EDT
Civil Twilight 7:07 AM EDT 7:48 PM EDT
Nautical Twilight 6:36 AM EDT 8:19 PM EDT
Astronomical Twilight 6:05 AM EDT 8:50 PM EDT
Moon 10:48 AM EDT (10/1) 9:35 PM EDT (10/1)
Length of Visible Light 12h 40m
Length of Day
11h 47m
Waxing Crescent, 12% of the Moon is Illuminated
Oct 1
Waxing Crescent
Oct 5
First Quarter
Oct 13
Full
Oct 21
Last Quarter
Oct 27
New

Hourly Weather History & Observations

Time (EDT) Temp. Heat Index Dew Point Humidity Pressure Visibility Wind Dir Wind Speed Gust Speed Precip Events Conditions
12:52 AM 73.0 °F - 64.0 °F 73% 30.03 in 9.0 mi Calm Calm - N/A   Clear
1:52 AM 75.0 °F - 64.0 °F 69% 30.02 in 9.0 mi Calm Calm - N/A   Clear
2:52 AM 73.0 °F - 64.0 °F 73% 30.02 in 9.0 mi SSW 3.5 mph - N/A   Clear
3:52 AM 73.9 °F - 64.0 °F 71% 30.03 in 9.0 mi Calm Calm - N/A   Clear
4:52 AM 71.1 °F - 64.0 °F 78% 30.04 in 9.0 mi Calm Calm - N/A   Partly Cloudy
5:52 AM 70.0 °F - 64.0 °F 81% 30.05 in 7.0 mi South 3.5 mph - N/A   Partly Cloudy
6:52 AM 69.1 °F - 64.0 °F 84% 30.06 in 8.0 mi SSW 4.6 mph - N/A   Partly Cloudy
7:52 AM 66.9 °F - 64.0 °F 90% 30.08 in 6.0 mi South 3.5 mph - N/A   Scattered Clouds
8:52 AM 73.9 °F - 66.0 °F 76% 30.08 in 8.0 mi South 4.6 mph - N/A   Partly Cloudy
9:52 AM 81.0 °F 83.0 °F 66.0 °F 60% 30.08 in 9.0 mi SSW 6.9 mph - N/A   Partly Cloudy
10:52 AM 84.9 °F 87.1 °F 66.0 °F 53% 30.08 in 10.0 mi SW 8.1 mph - N/A   Partly Cloudy
11:52 AM 89.1 °F 91.3 °F 66.0 °F 46% 30.06 in 10.0 mi SW 9.2 mph - N/A   Partly Cloudy
12:52 PM 89.1 °F 91.0 °F 64.9 °F 45% 30.05 in 10.0 mi SSW 9.2 mph - N/A   Mostly Cloudy
1:52 PM 91.9 °F 92.5 °F 62.1 °F 37% 30.03 in 10.0 mi SW 15.0 mph 20.7 mph N/A   Scattered Clouds
2:52 PM 93.9 °F 94.8 °F 62.1 °F 35% 30.01 in 10.0 mi WSW 15.0 mph - N/A   Scattered Clouds
3:52 PM 93.0 °F 93.8 °F 62.1 °F 36% 30.00 in 10.0 mi WSW 12.7 mph 19.6 mph N/A   Partly Cloudy
4:52 PM 91.0 °F 90.9 °F 61.0 °F 36% 29.99 in 10.0 mi West 9.2 mph - N/A   Partly Cloudy
5:52 PM 91.0 °F 90.5 °F 60.1 °F 35% 29.98 in 10.0 mi West 12.7 mph - N/A   Scattered Clouds
6:52 PM 88.0 °F 87.9 °F 61.0 °F 40% 29.98 in 10.0 mi West 6.9 mph - N/A   Scattered Clouds
7:52 PM 84.9 °F 85.0 °F 61.0 °F 44% 29.98 in 10.0 mi Calm Calm - N/A   Partly Cloudy
8:52 PM 79.0 °F - 63.0 °F 58% 29.98 in 10.0 mi SSW 3.5 mph - N/A   Clear
9:52 PM 78.1 °F - 62.1 °F 58% 29.97 in 10.0 mi SSW 4.6 mph - N/A   Clear
10:52 PM 73.0 °F - 64.0 °F 73% 29.96 in 9.0 mi SSW 4.6 mph - N/A   Clear
11:52 PM 73.9 °F - 63.0 °F 68% 29.95 in 10.0 mi SSW 3.5 mph - N/A   Clear